TimeEST,TemperatureF,Dew PointF,Humidity,Sea Level PressureIn,VisibilityMPH,Wind Direction,Wind SpeedMPH,Gust SpeedMPH,PrecipitationIn,Events,Conditions,WindDirDegrees,DateUTC
12:54 AM,8.1,5.0,87,30.12,10.0,Calm,Calm,-,N/A,,Partly Cloudy,0,2013-01-26 05:54:00
1:54 AM,3.9,1.0,88,29.97,10.0,Calm,Calm,-,N/A,,Partly Cloudy,0,2013-01-26 06:54:00
2:54 AM,3.9,-0.0,84,29.98,10.0,SSW,3.5,-,N/A,,Partly Cloudy,200,2013-01-26 07:54:00
3:02 AM,3.2,-0.4,85,30.10,10.0,SSW,4.6,-,N/A,,Scattered Clouds,200,2013-01-26 08:02:00
3:54 AM,1.9,-2.0,83,30.14,9.0,SW,6.9,-,N/A,,Scattered Clouds,230,2013-01-26 08:54:00
4:54 AM,6.1,3.0,87,30.16,8.0,SW,4.6,-,N/A,,Overcast,220,2013-01-26 09:54:00
5:54 AM,8.1,3.9,83,30.17,9.0,Calm,Calm,-,N/A,,Overcast,0,2013-01-26 10:54:00
6:54 AM,9.0,6.1,88,30.20,10.0,SW,5.8,-,N/A,,Overcast,220,2013-01-26 11:54:00
7:54 AM,10.0,7.0,87,30.21,10.0,SW,3.5,-,N/A,,Overcast,220,2013-01-26 12:54:00
8:54 AM,10.9,8.1,88,30.23,10.0,SW,5.8,-,N/A,,Overcast,230,2013-01-26 13:54:00
9:54 AM,14.0,10.0,84,30.25,10.0,SW,3.5,-,N/A,,Mostly Cloudy,220,2013-01-26 14:54:00
10:54 AM,17.1,10.0,74,30.25,10.0,South,4.6,-,N/A,,Partly Cloudy,190,2013-01-26 15:54:00
11:54 AM,19.0,8.1,62,30.26,10.0,SW,6.9,-,N/A,,Mostly Cloudy,230,2013-01-26 16:54:00
12:54 PM,21.0,9.0,60,30.27,10.0,WSW,8.1,-,N/A,,Overcast,250,2013-01-26 17:54:00
1:54 PM,23.0,9.0,55,30.27,10.0,WNW,5.8,-,N/A,,Overcast,300,2013-01-26 18:54:00
2:54 PM,23.0,10.0,58,30.29,10.0,NW,9.2,-,N/A,,Overcast,310,2013-01-26 19:54:00
3:54 PM,23.0,12.9,65,30.30,10.0,North,6.9,-,N/A,,Mostly Cloudy,360,2013-01-26 20:54:00
4:54 PM,21.0,12.9,71,30.32,10.0,North,5.8,-,N/A,,Partly Cloudy,360,2013-01-26 21:54:00
5:54 PM,18.0,12.0,78,30.34,10.0,Calm,Calm,-,N/A,,Partly Cloudy,0,2013-01-26 22:54:00
6:54 PM,14.0,10.0,84,30.35,10.0,Calm,Calm,-,N/A,,Mostly Cloudy,0,2013-01-26 23:54:00
7:54 PM,12.0,9.0,88,30.37,10.0,West,3.5,-,N/A,,Overcast,260,2013-01-27 00:54:00
8:54 PM,17.1,10.9,77,30.38,10.0,WSW,6.9,-,N/A,,Overcast,250,2013-01-27 01:54:00
9:54 PM,19.0,10.0,68,30.39,9.0,West,6.9,-,0.00,Snow,Light Snow,260,2013-01-27 02:54:00
10:54 PM,18.0,10.9,74,30.40,10.0,WSW,6.9,-,0.00,,Mostly Cloudy,250,2013-01-27 03:54:00
11:54 PM,14.0,10.0,84,30.41,7.0,SW,6.9,-,0.00,Snow,Light Snow,230,2013-01-27 04:54:00